Regional Weather Roundup
Issued by NWS Grand Forks, ND

Home | Current Version | Previous Version | Text Only | Print | Product List | Glossary Off
Versions: 1 2 3 4 5 6 7 8 9 10 11 12 13 14 15 16 17 18 19 20 21 22 23 24 25 26 27 28 29 30 31 32 33 34 35 36 37 38 39 40 41 42 43 44 45 46 47 48 49 50

000
ASUS43 KFGF 300131
RWRFGF
PRAIRIE TO PINES  WEATHER ROUNDUP
NATIONAL WEATHER SERVICE EASTERN NORTH DAKOTA/GRAND FORKS ND
800 PM CDT WED JUL 29 2015

 **SATELLITE DATA USED TO AUGMENT SKY COVER AT AUTOMATED STATIONS**
 *****  WEATHER ACROSS EASTERN NORTH DAKOTA  *****

CITY           SKY/WX    TMP DP  RH WIND       PRES   REMARKS
GRAND FORKS    PTCLDY    78  56  46 W13       29.87R
GRAND FRKS AFB PTCLDY    77  56  48 NW10      29.88R
GRAND FRKS NWS   N/A     77 N/A N/A NW18        N/A
DEVILS LAKE    SUNNY     75  54  46 W13       29.92S
FARGO          PTCLDY    76  57  51 W10       29.92S
WAHPETON ARPT  PTCLDY    75  50  41 W12       29.96R
$$

 ***** WEATHER ACROSS CENTRAL AND WESTERN NORTH DAKOTA  *****

CITY           SKY/WX    TMP DP  RH WIND       PRES   REMARKS
BISMARCK       SUNNY     80  47  31 NW13      30.03S
MINOT          SUNNY     77  48  35 W18G25    29.98S
JAMESTOWN      SUNNY     76  53  44 W10       29.98S
MINOT AFB      SUNNY     79  55  43 W13       29.97R
GARRISON         N/A     74  54  49 NW10      30.01S
WILLISTON      SUNNY     80  44  27 N14       30.06S
DICKINSON      SUNNY     76  45  33 NW10      30.08S
HETTINGER      SUNNY     78  43  28 W10       30.12S
$$

 *****  OTHER AIRPORT OBSERVATIONS IN OUR AREA  *****

CITY           SKY/WX    TMP DP  RH WIND       PRES   REMARKS
WALHALLA       FAIR      73  57  56 MISG      29.86R
GRAFTON AIRPOR FAIR      77  59  53 W14       29.87R
VALLEY CITY AR FAIR      73  57  56 W12       29.97S
CANDO          FAIR      72  59  64 W9        29.93S
CAVALIER APRT  FAIR      75  57  53 NW9       29.85R
GWINNER        FAIR      75  55  50 W8        30.00R
SHEYENNE NWR     N/A     79  53  40 NW10      29.95S
ROLLA          FAIR      66  57  72 NW8       29.95R
 ***** THE ABOVE OBSERVATIONS ARE NON NWS ARE NOT QUALITY
       CONTROLLED AND MAY MIS-REPORT RAIN FOR SNOW...
$$

  *****  WEATHER ACROSS NORTHERN MINNESOTA  *****

CITY           SKY/WX    TMP DP  RH WIND       PRES   REMARKS
FLAG ISLAND    PTCLDY    70  55  60 W17G23    29.75R
WARROAD        MOCLDY    72  57  60 W10       29.80R
ROSEAU         PTCLDY    72  55  56 W8        29.81R
HALLOCK        PTCLDY    73  55  53 NW9       29.83R
THF RVR FALLS  CLEAR     73  54  49 W10G16    29.86R
BAUDETTE       CLOUDY    69  56  62 NW10      29.79R
WASKISH        PTCLDY    73  57  56 W12       29.82R
CROOKSTON      CLEAR     75  59  57 W10       29.88R
$$
  *****  WEATHER ACROSS CENTRAL AND WEST MINNESOTA  *****

CITY           SKY/WX    TMP DP  RH WIND       PRES   REMARKS
FOSSTON        PTCLDY    70  54  56 W12       29.89S
BEMIDJI        CLEAR     73  51  45 W14G20    29.87R
PARK RAPIDS    PTCLDY    74  52  46 W14G25    29.90R
ELBOW LAKE     FAIR      73  57  59 W10       29.97R
WADENA         PTCLDY    73  55  53 W8        29.92S
DETROIT LAKES  PTCLDY    73  54  49 NW14      29.94R
MOORHEAD       PTCLDY    73  57  56 W12       29.93S
FERGUS FALLS   PTCLDY    73  55  53 W12       29.94R
MORRIS MN      CLEAR     73  55  53 W10       29.98S
STAPLES        PTCLDY    68  54  60 W6        29.93R
$$
  *****  WEATHER ELSEWHERE ACROSS MINNESOTA  *****

CITY           SKY/WX    TMP DP  RH WIND       PRES   REMARKS
DULUTH         PTCLDY    73  53  49 W15       29.83R
INTRNTL FALLS  CLOUDY    63  59  87 W14       29.78R
ELY            CLEAR     70  52  52 W16       29.75S
CLOQUET        PTCLDY    73  48  40 W12G17    29.84S
WHEATON        PTCLDY    73  55  53 W8        30.00R
BRAINERD       PTCLDY    75  52  44 W13G23    29.90S
HIBBING        CLEAR     73  50  44 W10G24    29.81R
ALEXANDRIA     PTCLDY    75  55  49 W14       29.98R
SAINT CLOUD    CLEAR     77  52  41 W14       29.93R
MINNEAPOLIS    CLEAR     80  54  40 W14       29.94S
$$

  *****  WEATHER ACROSS SOUTH DAKOTA  *****

CITY           SKY/WX    TMP DP  RH WIND       PRES   REMARKS
SIOUX FALLS    PTCLDY    80  57  45 W6        30.08R
BROOKINGS      CLEAR     75  57  53 NW6       30.08S
WATERTOWN      CLEAR     77  51  40 W10       30.05R
HURON          CLEAR     79  61  53 NW3       30.05R
SISSETON         N/A     76  57  51 NW6       29.99R
ABERDEEN       CLEAR     80  48  32 NW15      30.03S
MITCHELL       CLEAR     81  52  36 W6        30.07S
PIERRE         SUNNY     84  42  22 W10       30.06F
MOBRIDGE       SUNNY     82  52  35 NW8       30.04S
RAPID CITY     SUNNY     78  51  38 N7        30.16S
$$

  *****  SOME WEATHER IN NEARBY STATES *****

CITY           SKY/WX    TMP DP  RH WIND       PRES   REMARKS
GLASGOW MT     PTSUNNY   79  44  28 W7        30.07S
GREAT FALLS MT MOSUNNY   81  37  20 SW12G21   30.14S
CHEYENNE WY    MOSUNNY   76  50  40 S15G23    30.30S
SCOTTSBLUFF NE SUNNY     83  53  35 S7        30.18S
OMAHA NE       PTCLDY    81  57  43 SW7       30.13S
DES MOINES IA  PTCLDY    79  58  48 W6        30.10R
DAVENPORT IA   CLEAR     73  63  70 W7        30.05R
CHICAGO IL     PTCLDY    80  52  37 W18       29.98R
EAU CLAIRE WI  CLEAR     76  56  49 W9        29.91S
LA CROSSE WI   CLEAR     79  54  41 W10       29.96R
$$

  *****  SOME NATIONAL WEATHER *****

CITY           SKY/WX    TMP DP  RH WIND       PRES   REMARKS
LA GUARDIA NY  PTCLDY    87  71  58 S13       29.91R HX  93
RALEIGH NC     PTCLDY    83  69  62 SE5       29.98R
ATLANTA GA     MOCLDY    87  72  60 CALM      29.97R HX  93
NEW ORLEANS LA MOCLDY    78  72  81 S7        29.99F THUNDER
OKLAHOMA CITY  PTCLDY    89  71  55 E9        30.04R HX  95
ALBUQUERQUE NM CLOUDY    76  57  51 SE12      30.28R
SALT LAKE CITY SUNNY     85  25  11 NW7       30.20F
LOS ANGELES CA MOSUNNY   71  63  75 W13       29.92R
BOISE ID       SUNNY     88  29  12 NW6       30.13F
SEATTLE WA     SUNNY     88  48  25 N16       30.10F
$$

*** WEATHER ACROSS MANITOBA...SASKATCHEWAN AND ONTARIO ***
                ***ONTARIO***

CITY           SKY/WX    TMP DP  RH WIND       PRES   REMARKS
GERALDTON      LGT RAIN  66  59  77 SW13G20   29.52F
THUNDER BAY    MOCLDY    70  57  64 W21G33    29.64S
SIOUX LOOKOUT  LGT RAIN  63  59  88 W17G28    29.58R
TORONTO        MOCLDY    84  61  45 SW10G17   29.83S
BIG TROUT LK   CLOUDY    64  61  88 W9        29.28R
PICKLE LAKE    LGT RAIN  64  61  88 W12G20    29.41R
DRYDEN         CLOUDY    63  57  82 W21       29.64R
KENORA         MOCLDY    63  59  88 W15G21    29.73R
$$
                *** MANITOBA***

CITY           SKY/WX    TMP DP  RH WIND       PRES   REMARKS
BRANDON        MOSUNNY   73  59  60 NW12      29.89R
DAUPHIN        MOSUNNY   73  55  53 NW9       29.83R
ISLAND LAKE    LGT RAIN  59  55  88 NW17      29.57R
PILOT MOUND      N/A     73  57  56 NW12        N/A
THE PAS        MOSUNNY   70  59  68 NE7       29.78R
THOMPSON       PTSUNNY   64  59  82 NW5       29.69R
WINNIPEG       MOSUNNY   73  57  56 NW13      29.80R
LYNN LAKE        N/A    N/A N/A N/A MISG        N/A
CHURCHILL      CLOUDY    48  48 100 N16       29.61S FOG
GILLAM         DRIZZLE   55  54  94 N21G31    29.59R
$$
                ***SASKATCHEWAN***

CITY           SKY/WX    TMP DP  RH WIND       PRES   REMARKS
ESTEVAN        MOSUNNY   75  50  41 NW14G20   30.01F
KINDERSLEY     PTSUNNY   63  55  77 VRB2      30.04F
LLOYDMINSTER   PTSUNNY   72  46  40 W13G22    30.01S
PRINCE ALBERT  PTSUNNY   72  54  53 W6        29.89S
REGINA         MOSUNNY   72  54  53 NW12G18   30.00S
YORKTON        SUNNY     72  57  60 W9        29.90S
N. BATTLEFORD  SUNNY     72  46  40 NW20G25   29.99S
LA RONGE       PTSUNNY   70  54  56 W5        29.83
SASKATOON      CLOUDY    72  50  46 NW8       29.98S
SWIFT CURRENT  PTSUNNY   64  59  82 SE5       30.04F
$$
NOTE: THESE ARE AUTOMATED STATIONS WITH LIMITED QUALITY CONTROL
      "FAIR" INDICATES FEW OR NO CLOUDS BELOW 12,000 FEET WITH NO
      SIGNIFICANT WEATHER AND/OR OBSTRUCTIONS TO VISIBILITY.
      SKY/WX - SKY CONDITION AND SIGNIFICANT WEATHER.
      TMP - AIR TEMPERATURE.    DP   - DEWPOINT TEMPERATURE.
      RH  - RELATIVE HUMIDITY.  PRES - PRESSURE.
      HX  - HEAT INDEX.         WCI  - WIND CHILL INDEX.
$



USA.gov is the U.S. government's official web portal to all federal, state and local government web resources and services.